Location: Dittelbrunn
(50.0738°N, 10.2196°E)
Time: 13:30:24
(UTC+00:00)

Cosmos 990 Rocket - Pass Details

Date: 18 September 2020
Orbit: 746 x 769 km, 74.0° (Epoch: 25 October)

Event Time Altitude Azimuth Distance (km) Brightness Sun altitude
Rises 17:57:51 0° 195° (SSW) 3,179 7.3 -6.0°
Reaches altitude 10° 18:00:12 10° 193° (SSW) 2,259 6.5 -6.4°
Maximum altitude 18:05:17 71° 110° (ESE) 794 3.9 -7.2°
Drops below altitude 10° 18:10:25 10° 28° (NNE) 2,278 6.3 -8.0°
Sets 18:12:47 0° 26° (NNE) 3,208 7.1 -8.4°
